[[{"header":{"parameterUnit":"m.s-1","parameterCategory":1,"la1":30.2991,"la2":30.254,"lo1":-89.0895,"lo2":-89.0444,"dy":0.0017,"dx":0.0017,"nx":28,"ny":28,"refTime":"2025-03-14T09:00:00:Z","depth":0,"parameterNumber":2,"parameterNumberName":"U-component_of_WINDS"},"data":[0,0,0,0,0,0,0,0,0,0,0,0,0,0,0,0,0,0,0,0,0,0,0,0,0,0,0,0,0,0,0,0,0,0,0,0,0,0,0,0,0,0,0,0,0,0,0,0,0,0,0,0,0,0,0,0,0,0,3.6971,3.6974,0,3.7223,3.7226,3.7229,3.7263,3.7261,3.7259,3.7256,3.7521,3.753,3.7539,0,0,0,0,0,0,0,0,0,0,0,0,0,3.6526,3.6534,3.6971,3.6974,3.6977,3.7222,3.7226,3.7229,3.7264,3.7261,3.7258,3.7255,3.7518,3.7529,3.754,0,0,0,0,0,0,0,0,0,0,0,0,0,3.6743,3.6536,3.697,3.7024,3.7031,3.7222,3.7226,3.723,3.7264,3.7261,3.7257,3.7254,3.7515,3.7528,3.7542,3.7699,0,0,3.7584,3.759,0,0,0,0,0,0,0,0,3.673,3.6759,3.7013,3.702,3.7029,3.7208,3.7166,3.7388,3.7265,3.7176,3.7256,3.7252,3.742,3.7442,3.7497,3.7711,3.7722,3.7585,3.7594,3.76,3.7604,0,0,0,0,0,0,0,3.6715,3.6748,3.7071,3.7017,3.7026,3.7037,3.7064,3.7208,3.7315,3.7184,3.7187,3.7216,3.7424,3.7483,3.7503,3.7726,3.7585,3.7597,3.7606,3.7611,3.8081,3.8085,0,0,0,0,0,0,3.6689,3.6736,3.7063,3.7078,3.6868,3.7048,3.7078,3.7154,3.7314,3.7335,3.7218,3.7216,3.7462,3.7487,3.7513,3.7706,3.76,3.7613,3.7621,3.8077,3.8082,3.8087,0,0,0,0,0,0,3.668,3.6718,3.7053,3.6908,3.6951,3.7059,3.7145,3.7161,3.722,3.734,3.736,3.7259,3.746,3.7493,3.7652,3.7716,3.7619,3.7632,3.8072,3.8079,3.8085,3.8095,0,0,0,0,0,0,3.6667,3.6715,3.6774,3.6909,3.6959,3.7185,3.7149,3.7169,3.7243,3.7243,3.7383,3.7403,3.746,3.7631,3.7665,3.7733,3.7642,3.8067,3.8075,3.8083,3.8089,3.8101,3.811,0,0,0,0,0,3.6651,3.6769,3.6777,3.6816,3.7035,3.7189,3.7218,3.7278,3.7248,3.731,3.7387,3.7399,3.7703,3.7646,3.7686,3.7759,3.8063,3.8073,3.8082,3.8084,3.8098,3.811,0,0,0,0,0,0,3.6641,3.6787,3.6798,3.6963,3.7063,3.7194,3.7274,3.7291,3.7403,3.7399,3.7471,3.7502,3.7657,3.7725,3.7658,3.7919,3.7881,3.7899,3.7869,3.7884,3.7894,3.7874,3.7654,0,0,0,0,0,3.6658,3.6768,3.6891,3.7025,3.7074,3.7165,3.7234,3.7272,3.738,3.7423,3.7511,3.7617,3.7737,3.7814,3.7931,3.8099,3.813,3.8169,3.818,3.8188,3.8202,3.8296,3.8314,3.8118,3.8117,3.8117,0,0,3.6694,3.6788,3.6854,3.7025,3.7107,3.7221,3.7201,3.7323,3.7409,3.7443,3.7596,3.7665,3.7788,3.7951,3.8028,3.8012,3.8263,3.82,3.8205,3.8216,3.8307,3.8326,3.8342,3.8124,3.8123,3.8122,0,0,3.6818,3.69,3.7019,3.7101,3.7225,3.7285,3.7313,3.7442,3.7488,3.7643,3.767,3.7775,3.7979,3.8065,3.8136,3.8292,3.8307,3.8328,3.8383,3.8474,3.8489,3.8503,3.8558,3.8577,3.8342,3.8342,3.8342,0,3.6848,3.702,3.7079,3.72,3.7275,3.7307,3.743,3.7507,3.7664,3.7715,3.7695,3.7951,3.8036,3.822,3.8257,3.8314,3.835,3.8312,3.8482,3.8496,3.8511,3.8564,3.8584,3.8344,3.8344,3.8343,3.8343,0,3.705,3.7169,3.7251,3.7398,3.7482,3.7603,3.7682,3.7761,3.7791,3.7853,3.8011,3.8114,3.8252,3.8298,3.833,3.8487,3.8473,3.8466,3.843,3.853,3.8581,3.8602,3.8346,3.8345,3.8345,3.8345,0,0,3.7176,3.7353,3.7382,3.7448,3.7587,3.7681,3.7804,3.7935,3.8001,3.8108,3.8213,3.8385,3.8379,3.8459,3.8501,3.8581,3.8696,3.8565,3.8568,3.8585,3.8875,3.8878,3.8901,3.8707,3.8712,3.8715,3.8864,0,3.7315,3.7532,3.7589,3.7775,3.7885,3.7917,3.8025,3.8122,3.8183,3.8288,3.8357,3.8476,3.846,3.8508,3.8588,3.8665,3.8756,3.8655,3.8808,3.8812,3.8774,3.8928,3.8933,3.9069,3.8885,3.8889,3.8891,0,3.7507,3.7614,3.781,3.7933,3.7981,3.8076,3.8201,3.83,3.8412,3.8451,3.8539,3.8574,3.8704,3.866,3.8842,3.8773,3.8839,3.8886,3.8893,3.8909,3.8857,3.8948,3.9114,3.9133,3.8923,3.8921,3.8918,0,3.7577,3.7772,3.7913,3.797,3.8117,3.8183,3.8247,3.8355,3.843,3.8541,3.8591,3.8716,3.8784,3.8881,3.8949,3.8911,3.9125,3.9087,3.9162,3.916,3.9206,3.9202,3.9383,3.9249,3.9249,3.9248,3.9248,0,3.7727,3.7845,3.7947,3.8034,3.8167,3.8232,3.8364,3.843,3.8525,3.8627,3.8664,3.8759,3.8843,3.895,3.9004,3.9146,3.9178,3.9214,3.9227,3.921,3.9205,3.9254,3.9246,3.9254,3.9253,3.9251,3.925,0,3.7828,3.7901,3.8057,3.8183,3.8217,3.831,3.8419,3.8505,3.8567,3.8696,3.873,3.8828,3.8956,3.9033,3.9196,3.9232,3.9389,3.9398,3.935,3.9356,3.9426,3.9418,3.9645,3.9678,3.9522,3.9523,3.9525,0,3.7918,3.8009,3.8144,3.8213,3.8278,3.839,3.8466,3.8534,3.8613,3.8746,3.8817,3.8946,3.9053,3.9256,3.9344,3.9468,3.9481,3.9552,3.95,3.948,3.9481,3.9474,3.9484,3.956,3.9562,3.9563,3.9564,0,3.8069,3.81,3.8208,3.8328,3.8417,3.8516,3.8614,3.867,3.8755,3.8841,3.8971,3.9054,3.9218,3.9347,3.9478,3.9548,3.9571,3.9579,3.9603,3.9587,3.9554,3.9572,3.9373,3.9574,3.9573,3.9572,3.9571,3.9571,3.8167,3.8249,3.8356,3.8475,3.8555,3.8646,3.8733,3.8805,3.8913,3.9051,3.9085,3.9221,3.9331,3.951,3.9582,3.969,3.9679,3.9714,3.9723,3.973,3.9731,3.9537,3.9715,3.9715,3.9715,3.9715,3.9714,0,3.832,3.839,3.8498,3.8633,3.8726,3.8737,3.8846,3.8924,3.9042,3.9141,3.9245,3.9394,3.9519,3.9615,3.9743,3.9812,3.9825,3.9843,3.9839,3.9854,3.9734,3.97,3.983,3.983,3.983,3.983,3.983,3.983,3.841,3.8549,3.8593,3.8772,3.8843,3.8974,3.9035,3.9119,3.9199,3.9362,3.9465,3.9526,3.9625,3.976,3.9875,3.9901,3.9946,3.9962,3.9989,3.9875,3.9863,3.9851,3.9819,3.9971,3.9972,4.01,4.0101,4.0102]},{"header":{"parameterUnit":"m.s-1","parameterCategory":1,"la1":30.2991,"la2":30.254,"lo1":-89.0895,"lo2":-89.0444,"dy":0.0017,"dx":0.0017,"nx":28,"ny":28,"refTime":"2025-03-14T09:00:00:Z","depth":0,"parameterNumber":3,"parameterNumberName":"V-component_of_WINDS"},"data":[0,0,0,0,0,0,0,0,0,0,0,0,0,0,0,0,0,0,0,0,0,0,0,0,0,0,0,0,0,0,0,0,0,0,0,0,0,0,0,0,0,0,0,0,0,0,0,0,0,0,0,0,0,0,0,0,0,0,2.3444,2.3444,0,2.3456,2.3456,2.3456,2.3413,2.3411,2.341,2.3409,2.3422,2.3423,2.3425,0,0,0,0,0,0,0,0,0,0,0,0,0,2.3382,2.3383,2.3444,2.3444,2.3444,2.3456,2.3456,2.3456,2.3413,2.3411,2.341,2.3408,2.3421,2.3423,2.3425,0,0,0,0,0,0,0,0,0,0,0,0,0,2.3403,2.3383,2.3444,2.3424,2.3422,2.3456,2.3456,2.3456,2.3413,2.3411,2.3409,2.3407,2.3421,2.3423,2.3425,2.3479,0,0,2.3433,2.3434,0,0,0,0,0,0,0,0,2.3402,2.3405,2.3426,2.3425,2.3423,2.3431,2.3439,2.3464,2.3414,2.3417,2.3409,2.3406,2.3426,2.3428,2.3435,2.348,2.348,2.3433,2.3434,2.3435,2.3436,0,0,0,0,0,0,0,2.34,2.3404,2.3448,2.3427,2.3425,2.3414,2.3415,2.3444,2.3432,2.3416,2.3413,2.3415,2.3425,2.3433,2.3435,2.3481,2.3433,2.3435,2.3436,2.3437,2.3569,2.3571,0,0,0,0,0,0,2.3401,2.3403,2.3448,2.3449,2.3407,2.3417,2.3418,2.343,2.3432,2.343,2.3417,2.3413,2.343,2.3432,2.3435,2.3498,2.3435,2.3437,2.3439,2.3567,2.357,2.3572,0,0,0,0,0,0,2.34,2.3406,2.3448,2.3425,2.343,2.342,2.3434,2.3432,2.3439,2.3432,2.343,2.3426,2.3428,2.3432,2.3468,2.3498,2.3438,2.3441,2.3565,2.3568,2.3571,2.3624,0,0,0,0,0,0,2.3399,2.3406,2.3426,2.3426,2.3431,2.3481,2.3436,2.3433,2.3443,2.3438,2.3441,2.3439,2.3427,2.3465,2.3471,2.35,2.3442,2.3562,2.3566,2.357,2.362,2.3629,2.3637,0,0,0,0,0,2.3397,2.3441,2.3428,2.3433,2.3457,2.3483,2.3486,2.347,2.3446,2.3466,2.3462,2.3439,2.3493,2.3469,2.3475,2.3506,2.356,2.3565,2.357,2.3616,2.3627,2.3636,0,0,0,0,0,0,2.3446,2.3441,2.3426,2.3472,2.3478,2.3475,2.3501,2.3482,2.3496,2.3491,2.3471,2.3472,2.3512,2.3512,2.3485,2.3557,2.3523,2.3529,2.3556,2.3566,2.3574,2.3574,2.3444,0,0,0,0,0,2.3462,2.3483,2.3478,2.3519,2.3523,2.3511,2.3522,2.3509,2.3515,2.3518,2.3516,2.3523,2.3541,2.3553,2.357,2.3619,2.3619,2.3643,2.3651,2.3658,2.3664,2.369,2.37,2.3588,2.3588,2.3587,0,0,2.3495,2.3495,2.351,2.3528,2.3532,2.3555,2.3514,2.354,2.3556,2.3522,2.3556,2.3555,2.3561,2.3604,2.3623,2.3605,2.3695,2.3664,2.367,2.3672,2.3696,2.3706,2.3716,2.3591,2.359,2.359,0,0,2.3568,2.357,2.3604,2.3608,2.3614,2.3606,2.3614,2.3614,2.3612,2.3646,2.362,2.3639,2.3671,2.3676,2.3683,2.3756,2.3736,2.3762,2.3806,2.3831,2.384,2.3848,2.3874,2.3884,2.3768,2.3768,2.3768,0,2.3609,2.3642,2.3624,2.3652,2.366,2.3629,2.3663,2.3668,2.3679,2.3685,2.3665,2.3704,2.3706,2.375,2.3768,2.3774,2.3783,2.3762,2.384,2.3848,2.3855,2.388,2.389,2.3771,2.3771,2.377,2.377,0,2.3692,2.3716,2.3742,2.3753,2.3765,2.3795,2.3782,2.3795,2.3781,2.3775,2.381,2.3811,2.3827,2.3836,2.3823,2.3877,2.3866,2.3844,2.3809,2.3869,2.3892,2.3901,2.3776,2.3774,2.3774,2.3773,0,0,2.3798,2.3797,2.3807,2.3811,2.3814,2.3832,2.3861,2.3876,2.3888,2.3896,2.392,2.3947,2.3926,2.3934,2.392,2.3943,2.4,2.3917,2.3917,2.3933,2.406,2.4078,2.4089,2.3986,2.3988,2.399,2.406,0,2.3869,2.3919,2.3902,2.3952,2.3973,2.3944,2.3969,2.3973,2.3968,2.3985,2.3979,2.3999,2.3969,2.3974,2.3994,2.3989,2.4026,2.3984,2.4008,2.401,2.4009,2.4101,2.412,2.4186,2.4069,2.407,2.4071,0,2.3959,2.3971,2.4023,2.4021,2.403,2.4053,2.4065,2.4081,2.4085,2.408,2.4088,2.407,2.4098,2.4062,2.41,2.4072,2.4081,2.408,2.4082,2.4084,2.4045,2.4106,2.4207,2.4217,2.4085,2.4084,2.4083,0,2.4031,2.4059,2.4094,2.4098,2.4097,2.4114,2.4115,2.4117,2.4127,2.4137,2.4143,2.4157,2.4165,2.4176,2.4162,2.4137,2.4202,2.4165,2.4198,2.4199,2.4214,2.4213,2.4318,2.4219,2.4219,2.4219,2.4218,0,2.4113,2.4146,2.4126,2.4147,2.4183,2.4164,2.42,2.4197,2.4199,2.4219,2.4194,2.4213,2.4193,2.4211,2.42,2.4233,2.4236,2.4233,2.423,2.4235,2.4236,2.4242,2.4237,2.4221,2.4221,2.422,2.422,0,2.4199,2.4187,2.4223,2.4219,2.4219,2.4245,2.4242,2.4261,2.4254,2.4279,2.4284,2.4273,2.4292,2.4279,2.4298,2.429,2.4334,2.4324,2.4333,2.433,2.4364,2.4361,2.4477,2.4491,2.4383,2.4384,2.4384,0,2.4252,2.4277,2.4276,2.4287,2.4289,2.4308,2.4318,2.4299,2.4311,2.4317,2.4335,2.4352,2.4365,2.4397,2.439,2.4404,2.4395,2.4434,2.4397,2.4402,2.4396,2.4395,2.4397,2.4442,2.4444,2.4445,2.4445,0,2.4348,2.4341,2.4356,2.4368,2.4381,2.439,2.4397,2.4408,2.4389,2.4403,2.4422,2.4432,2.4451,2.4468,2.448,2.448,2.446,2.4457,2.4465,2.4472,2.4476,2.4475,2.4354,2.4455,2.4454,2.4453,2.4453,2.4452,2.442,2.444,2.4442,2.4459,2.4463,2.447,2.4488,2.4482,2.4498,2.4512,2.45,2.4523,2.4525,2.4539,2.4541,2.4559,2.4543,2.4555,2.4558,2.4562,2.4567,2.4473,2.4561,2.4561,2.456,2.456,2.456,0,2.4514,2.4514,2.453,2.454,2.4554,2.4533,2.454,2.4552,2.4573,2.4577,2.459,2.4611,2.4627,2.4622,2.4636,2.4651,2.4642,2.4655,2.4654,2.4655,2.458,2.4572,2.4662,2.4662,2.4662,2.4662,2.4662,2.4662,2.4565,2.4598,2.4591,2.4625,2.4624,2.4646,2.4652,2.4658,2.4661,2.4687,2.47,2.4696,2.4696,2.471,2.4723,2.4721,2.4728,2.4745,2.4739,2.467,2.466,2.465,2.4642,2.4746,2.4746,2.4812,2.4813,2.4813]}]]